GEESAT 3-01

导读 | 豆包AI

**GEESAT 3-01卫星**是中国于北京时间2024年9月5日08:00发射的一颗国产卫星。作为GEESAT 3系列的首发星,该卫星主要服务于商业遥感领域,可提供高分辨率对地观测数据,广泛应用于国土资源勘查、环境监测、城市规划等多个领域,将进一步提升我国商业航天的遥感服务能力,推动空间信息应用产业发展。

Basic Information
目录编号:
61011
目录名称:
GEESAT 3-01
国际标识:
2024-159A
轨道中心:
EARTH
卫星名称:
GEESAT 3-01
卫星全名:
GEESAT 3-01
卫星状态:
在轨 (已飞行555 天)
发射日期:
2024-09-05 UTC
国别 :
中国 (CN)
星等 :
--
Orbit Information
数据来源 国际轨道数据
星历时间: 2026-03-13T22:12:27+0800
11小时前
查看轨道信息
半长轴: 6995.348km
偏心率: 0.00032
轨道倾角: 49.999°
近地点辐角 243.218°
升交点赤经 166.353°
平近点角 116.843°
近地点: 614.972km
远地点: 619.45km
周期: 97.045分钟
每日圈数: 14.83846
Detailed Information
使用方式:
暂无
2D Orbit Map
3D Orbit Map
Orbit Altitude Analysis Chart
Orbit Inclination Analysis Chart
Orbit Comprehensive Analysis Chart
View Comprehensive Chart